Lid_Strength_Index
4 4 4 3 3 3 3 2 2 2 1 1 1 1 1 1 1 5 8 6 8 9 11 9 9 9 8 10 14 9 9 9 9 12 13 17 15 16 19 17 15 14 15 16 15 17 18 11 12 13 11 11 11 11
5 4 4 4 4 3 3 3 3 3 2 2 2 2 1 1 1 3 8 7 7 9 11 8 9 8 8 8 8 8 8 10 8 11 15 14 18 19 20 21 15 17 12 14 13 14 12 12 12 11 11 10 11 11
5 5 5 4 5 5 4 4 4 4 3 3 2 2 2 1 1 3 7 8 7 10 10 11 10 8 7 8 8 11 12 8 9 9 12 14 18 16 21 18 16 14 13 14 13 13 11 11 12 11 10 10 11 11
6 6 5 5 5 5 5 5 5 4 4 4 3 3 3 3 2 4 6 6 7 10 13 13 8 9 8 10 8 8 9 8 9 11 13 15 20 13 16 14 16 15 13 14 14 11 12 12 12 12 12 12 12 13
6 6 6 6 5 5 5 5 5 5 5 5 4 4 3 3 4 6 7 7 8 13 19 17 10 10 12 11 11 9 9 9 10 12 13 13 15 15 17 15 16 13 13 15 14 12 12 12 12 12 13 13 14 15
7 7 6 6 6 5 6 6 5 5 5 5 5 5 3 4 4 8 14 8 10 13 18 21 12 12 16 16 10 10 10 10 10 11 11 11 10 13 19 17 14 13 12 10 11 12 12 13 14 16 15 16 16 16
7 7 7 6 6 6 6 6 5 5 5 6 6 5 4 4 9 13 15 11 9 11 19 22 18 13 14 13 11 10 10 11 11 11 12 11 11 11 13 17 15 14 16 16 17 15 13 16 16 19 19 20 20 21
7 7 6 6 6 6 7 7 6 6 7 7 6 5 5 6 8 12 12 9 11 14 17 20 21 15 16 14 14 12 12 12 12 13 13 14 14 13 16 14 15 16 16 18 19 19 18 20 20 20 20 21 22 21
7 7 6 6 6 6 7 7 7 7 8 7 6 7 10 16 19 19 10 12 15 17 24 21 20 21 19 17 15 14 13 15 20 21 20 19 24 16 15 16 17 17 17 17 21 23 23 22 22 23 23 24 24 22
8 8 7 7 6 6 7 7 7 9 9 9 12 18 21 21 12 13 20 23 22 26 26 23 27 24 21 22 17 17 18 19 24 24 23 25 23 19 16 18 21 20 19 22 21 20 26 26 26 25 25 25 25 25
8 7 7 7 7 7 7 7 7 11 13 20 24 24 19 14 19 26 27 26 30 27 31 31 29 25 24 23 25 21 23 23 24 25 26 30 26 21 24 27 28 27 25 25 27 27 28 26 27 28 27 29 30 29
7 7 7 7 7 7 6 8 9 16 20 19 20 20 23 26 27 25 29 31 31 26 31 28 27 27 28 25 26 28 29 26 25 33 28 29 22 22 26 25 28 32 31 30 32 28 28 27 29 30 30 31 31 32
7 7 7 7 7 7 7 8 10 11 15 22 25 25 24 27 27 27 29 28 29 32 31 32 29 28 29 26 31 30 30 29 34 33 29 24 23 25 26 31 31 36 38 36 34 36 35 34 36 35 32 33 35 34
7 7 7 7 7 7 7 9 10 14 21 24 26 25 24 28 28 26 26 25 27 29 31 30 33 29 33 29 33 30 33 34 34 34 27 24 25 26 32 36 33 30 31 31 30 35 35 35 34 37 37 37 38 33
7 7 7 8 7 7 8 10 13 22 25 24 25 25 27 28 35 37 41 34 32 32 29 29 30 25 33 31 32 33 33 33 30 26 25 24 27 32 32 36 30 30 34 33 37 36 32 35 36 34 36 38 40 39
7 7 9 7 7 8 11 17 23 26 28 26 29 26 33 28 30 36 39 34 34 29 32 29 34 31 30 31 31 30 31 29 24 27 25 31 30 32 32 32 29 31 32 32 36 37 36 37 35 33 40 40 37 36
7 11 8 7 7 10 13 23 25 27 24 28 25 37 30 31 26 31 32 31 30 28 27 29 28 24 31 35 33 31 28 24 25 26 30 30 28 29 29 32 33 32 32 34 38 37 37 41 42 39 35 33 37 35
10 10 7 9 15 16 24 25 26 28 25 25 24 28 35 35 33 35 36 34 28 28 29 26 26 30 29 30 29 26 26 28 30 28 29 31 30 31 32 28 29 30 32 35 35 37 40 40 38 32 36 37 37 37
10 9 7 9 12 16 19 23 25 25 24 29 30 32 34 35 37 36 37 36 34 33 29 33 31 30 27 26 25 28 30 29 25 27 30 32 32 31 30 32 33 34 34 36 37 34 34 34 33 35 35 35 33 34
7 7 7 8 10 16 19 24 30 29 28 28 30 31 32 32 33 35 39 37 33 34 34 32 28 25 24 26 26 27 27 30 29 28 27 28 32 33 33 33 32 33 34 37 37 36 37 35 36 33 33 33 33 29
7 9 7 10 14 15 18 24 29 28 32 31 31 29 32 33 32 33 37 37 35 31 30 27 25 27 32 33 34 33 31 29 27 25 26 28 31 33 33 34 34 34 29 30 31 35 33 33 33 35 34 31 31 29
11 8 15 13 15 16 19 22 26 31 31 35 33 32 34 34 33 34 35 36 32 27 26 28 30 30 30 30 29 32 32 34 36 34 32 32 30 31 33 34 34 31 33 32 35 34 34 34 33 33 33 31 29 29
11 12 16 15 15 17 23 28 25 31 29 34 35 33 33 37 35 33 35 33 30 27 26 28 32 35 32 36 38 37 36 34 32 33 35 35 37 38 35 33 33 31 32 31 35 35 33 30 31 31 31 31 32 32
12 15 17 17 15 22 28 31 29 30 32 34 33 32 33 37 36 36 34 32 29 28 29 29 31 32 33 34 31 30 32 34 35 36 38 35 34 33 36 34 36 35 33 32 34 33 33 33 31 32 33 33 34 33
16 17 16 18 22 29 30 32 33 33 32 32 32 34 36 38 35 35 34 30 28 27 26 30 30 27 27 30 33 34 36 32 31 31 34 35 35 35 33 34 33 34 33 31 31 32 33 35 35 35 35 35 34 34
19 18 18 18 25 27 29 33 34 32 33 33 30 36 38 34 33 29 28 27 27 26 30 29 28 31 34 31 31 33 30 34 33 31 33 35 33 29 28 29 29 29 35 34 31 32 33 34 35 35 35 35 33 34
18 19 19 25 25 28 33 35 33 31 32 30 36 36 32 30 28 26 27 27 25 28 31 31 27 28 29 30 34 36 36 35 34 32 34 35 35 34 30 28 28 28 34 34 32 31 31 34 35 36 36 37 38 36
16 20 24 28 28 28 29 29 29 30 28 29 30 32 29 26 23 25 26 29 30 32 32 32 33 33 32 31 31 33 34 35 33 33 32 33 34 34 33 33 30 26 32 32 31 31 34 34 35 36 36 34 34 36
21 22 24 28 29 27 26 27 27 26 26 26 25 26 25 25 28 27 28 29 30 29 29 30 32 31 30 30 29 30 30 30 27 27 27 28 29 29 32 32 32 32 33 32 25 29 32 34 35 35 36 34 34 37
24 21 23 25 26 25 24 24 24 24 24 23 23 25 27 29 30 29 28 27 27 28 28 29 29 28 28 27 28 29 29 28 27 25 24 24 24 27 29 30 31 32 33 30 29 28 23 31 30 35 34 33 33 33
22 22 23 24 25 31 29 27 25 25 25 25 24 24 28 30 30 31 31 31 29 28 27 27 26 26 25 25 25 25 25 27 28 27 28 28 28 28 29 30 31 32 32 31 33 33 33 34 36 35 34 32 33 32
21 21 23 27 29 29 27 25 25 26 25 25 27 26 26 25 29 30 32 31 28 27 28 27 26 26 27 27 26 26 27 27 27 28 27 27 28 29 30 31 33 32 31 32 33 33 34 34 34 33 32 32 32 32
23 24 25 26 27 27 26 24 25 26 26 27 28 27 27 25 29 30 30 30 31 32 31 30 30 30 30 29 28 28 28 27 27 23 24 25 27 28 31 32 32 31 31 31 32 32 32 32 31 32 32 32 31 31